www.pogodaiklimat.ru

Погода и климат >> Архив погоды >> Дания >> Хальд V


ПОГОДА в Хальде V

  • Прогноз погоды в Хальде V
  • Монитор погоды в Хальде V

АРХИВ ПОГОДЫ в Хальде V

Время (UTC), дата Ветер
(напр.,м/с)
 
Видим.   Явления Облачность Т
(С)
Тd
(С)
f
(%)
Тe
(С)
Тes
(С)
Комфортность P
(гПа)
Po
(гПа)
Тmin
(С)
Tmax
(С)
R
(мм)
R24
(мм)
S
(см)
19 16.08 Ю 2 40 км 4/0
[]
+13.8 +9.2 74 +13 +13 1011.4 1000.7
20 16.08 Ю 3 45 км 1/0
[]
+12.5 +9.3 81 +11 +11 1011.2 1000.6
21 16.08 Ю 4 23 км 9/0
[]
+12.9 +9.9 82 +11 +11 1010.6 1000.0
22 16.08 Ю 5 29 км 9/0
[]
+13.1 +10.2 83 +11 +11 1010.0 999.3
23 16.08 Ю 5 35 км 9/9 1500 м
[]
+13.6 +11.2 85 +12 +12 1009.3 998.7
00 17.08 Ю 5 27 км 9/9 1500 м
[]
+14.3 +11.9 85 +13 +13 1008.6 998.0
01 17.08 Ю 6 30 км 9/9 1260 м
[]
+15.2 +12.9 86 +14 +14 1007.6 997.1
02 17.08 Ю 5 28 км 9/9 1500 м
[]
+15.3 +13.1 87 +14 +14 1006.7 996.2
03 17.08 Ю 6 25 км 9/9 1500 м
[]
+15.4 +13.1 86 +14 +14 1005.9 995.4
04 17.08 Ю 7 9000 м слаб. дождь {морось} 10/10 1500 м
[]
+14.6 +13.9 96 +12 +12 1005.5 995.0
05 17.08 Ю 7 7000 м слаб. дождь 10/10 1380 м
[]
+14.4 +14.1 98 +12 +12 1004.9 994.3
06 17.08 Ю 7 5000 м слаб. дождь {морось} 9/9 150 м
[]
+14.3 +14.1 99 +12 +12 1004.3 993.8 +12.2 +15.5
07 17.08 Ю 8 7000 м слаб. ливневой дождь 10/10 150 м
[]
+14.5 +14.4 99 +12 +12 1003.9 993.4
08 17.08 Ю 8 5000 м в посл. час морось {ливн. осадки} 9/9 150 м
[]
+14.8 +14.7 99 +12 +13 1003.4 992.9
09 17.08 Ю 8 11 км слаб. ливневой дождь 9/9 210 м
[]
+15.0 +14.9 99 +13 +13 1003.1 992.7
10 17.08 Ю 8 9000 м слаб. ливневой дождь 9/9 120 м
[]
+15.2 +15.1 99 +13 +13 1002.8 992.3
11 17.08 Ю 8 18 км в посл. час морось {ливн. осадки} 9/9 180 м
[]
+15.6 +15.5 99 +14 +14 1002.6 992.2
12 17.08 Ю 7 19 км {ливн. осадки, дождь} 10/10 180 м
[]
+16.2 +16.0 99 +15 +15 1002.7 992.2
13 17.08 Ю 6 8000 м слаб. морось {дождь} 9/9 240 м
[]
+16.8 +16.4 97 +16 +16 1002.6 992.1
14 17.08 Ю 6 21 км в посл. час дождь {ливн. осадки} 9/9 180 м
[]
+16.9 +16.7 99 +16 +16 1002.5 992.1
15 17.08 Ю 7 30 км {ливн. осадки, дождь} 4/4 360 м
[]
+19.1 +17.3 89 +20 +21 1002.4 992.1
16 17.08 Ю 5 35 км 6/6 570 м
[]
+18.2 +16.5 90 +18 +19 1002.6 992.2
17 17.08 ЮЗ 5 30 км в посл. час дождь {ливн. осадки} 6/6 870 м
[]
+18.8 +16.9 89 +20 +20 1003.0 992.6
18 17.08 ЮЗ 4 30 км {ливн. осадки, дождь} ясно +17.0 +13.6 80 +17 +17 1003.6 993.2 +14.2 +19.4
19 17.08 ЮЗ 3 24 км ясно +14.6 +13.1 91 +14 +14 1004.0 993.5
20 17.08 ЮЗ 3 19 км 1/0
[]
+13.5 +12.8 96 +12 +12 1004.1 993.5
21 17.08 ЮЗ 3 17 км 1/1 1000 м
[]
+13.5 +12.9 96 +12 +12 1004.2 993.7
22 17.08 Ю 3 13 км 1/0
[]
+13.0 +12.8 99 +11 +11 1004.4 993.9
23 17.08 Ю 3 11 км 4/0
[]
+12.7 +12.6 99 +11 +11 1004.9 994.3
00 18.08 Ю 3 10 км 4/0
[]
+12.9 +12.9 100 +11 +11 1005.0 994.4
01 18.08 Ю 3 9000 м дымка 1/0
[]
+12.4 +12.4 100 +11 +11 1004.7 994.1
02 18.08 Ю 2 7000 м дымка 9/0
[]
+12.5 +12.4 99 +11 +11 1004.8 994.2
03 18.08 Ю 2 5000 м дымка 1/0
[]
+12.0 +12.0 100 +11 +11 1004.3 993.7
04 18.08 ЮЗ 2 6000 м дымка 4/4 480 м
[]
+12.1 +12.0 99 +11 +11 1004.1 993.5
05 18.08 Ю 2 4100 м дымка 6/0
[]
+12.8 +12.8 100 +12 +12 1004.1 993.5
06 18.08 Ю 2 8000 м дымка 1/0
[]
+13.7 +13.7 100 +13 +14 1004.0 993.5 +11.8 +17.0
07 18.08 Ю 2 11 км 4/0 2000 м
[]
+14.5 +14.4 99 +14 +17 1004.1 993.5
08 18.08 Ю 2 16 км 6/0
[]
+15.7 +14.8 94 +16 +20 1003.7 993.2
09 18.08 ЮВ 4 1400 м дымка 1/0
[]
+17.5 +14.9 85 +17 +23 1003.4 993.0
10 18.08 Ю 4 24 км 1/0 2000 м
[]
+17.9 +14.1 78 +18 +25 1003.1 992.7
11 18.08 Ю 5 27 км 6/6 750 м
[]
+18.6 +13.3 71 +19 +21 1002.8 992.5
12 18.08 ЮЗ 4 3400 м сильн. ливневой дождь 9/9 450 м
[]
+14.1 +13.9 99 +13 +13 1003.1 992.6
13 18.08 ЮЗ 2 18 км слаб. ливневой дождь 9/9 930 м
[]
+14.6 +13.7 94 +14 +15 1002.9 992.4
14 18.08 ЮЗ 4 7000 м слаб. ливневой дождь 9/9 630 м
[]
+13.4 +13.0 97 +12 +12 1003.2 992.7
15 18.08 Ю 3 7000 м слаб. ливневой дождь 9/9 700 м
[]
+13.9 +13.8 99 +13 +13 1003.2 992.7
16 18.08 Ю 2 16 км в посл. час дождь {ливн. осадки} 9/9 600 м
[]
+14.0 +13.8 99 +13 +14 1002.7 992.1
17 18.08 ЮВ 3 16 км 9/9 500 м
[]
+13.7 +13.6 99 +13 +13 1002.5 991.9
18 18.08 Ю 4 9000 м слаб. ливневой дождь 9/9 1320 м
[]
+14.5 +14.4 99 +13 +13 1002.4 991.9 +13.1 +19.6
19 18.08 ЮЗ 5 10 км слаб. ливневой дождь {морось} 6/6 660 м
[]
+14.0 +14.0 100 +12 +12 1002.9 992.4
20 18.08 ЮЗ 4 8000 м дымка {ливн. осадки} 1/1 570 м
[]
+13.2 +13.2 100 +11 +11 1003.3 992.7
21 18.08 ЮЗ 3 9000 м дымка {ливн. осадки} ясно +12.7 +12.6 99 +11 +11 1004.0 993.4
22 18.08 ЮЗ 4 11 км 1/1 1020 м
[]
+12.3 +12.3 100 +10 +10 1004.6 994.0
23 18.08 ЮЗ 4 12 км ясно +11.9 +11.9 100 +10 +10 1005.1 994.5
00 19.08 ЮЗ 3 11 км {ливн. осадки, морось} ясно +11.1 +11.0 99 +9 +9 1005.5 994.8
01 19.08 ЮЗ 4 12 км ясно +10.8 +10.7 99 +8 +8 1005.7 995.0
02 19.08 Ю 3 13 км ясно +10.4 +10.4 100 +8 +8 1005.8 995.2
03 19.08 Ю 4 10 км ясно +10.1 +10.1 100 +7 +7 1006.1 995.3
04 19.08 Ю 4 7000 м дымка ясно +10.2 +10.1 99 +8 +8 1006.3 995.6
05 19.08 Ю 3 11 км ясно +11.4 +11.4 100 +9 +10 1006.8 996.1
06 19.08 Ю 5 13 км {дымка} ясно +14.0 +13.6 97 +12 +13 1006.6 996.1 +9.9 +14.5
07 19.08 Ю 6 18 км 1/0
[]
+15.1 +14.4 96 +13 +15 1007.0 996.5
08 19.08 Ю 5 30 км 4/0 2000 м
[]
+15.4 +13.2 87 +14 +16 1007.3 996.8
09 19.08 ЮЗ 7 н/о ясно +17.8 +13.9 78 +17 +20 1007.4 997.0
10 19.08 ЮЗ 8 27 км 1/1 960 м
[]
+18.7 +11.8 64 +19 +20 1007.4 997.0
11 19.08 Ю 7 30 км ясно +19.2 +13.1 68 +20 +23 1007.9 997.5
12 19.08 ЮЗ 5
{13}
30 км в посл. час дождь {ливн. осадки} 6/6 1320 м
[]
+15.2 +13.6 90 +14 +16 1009.1 998.6
13 19.08 ЮЗ 7 26 км слаб. ливневой дождь 1/1 720 м
[]
+17.0 +13.9 82 +16 +19 1009.3 998.8
14 19.08 ЮЗ 4 9000 м ливневой дождь 9/9 660 м
[]
+13.7 +12.6 93 +12 +13 1010.4 999.8
15 19.08 ЮЗ 5 29 км в посл. час дождь {ливн. осадки} 1/1 960 м
[]
+16.9 +14.5 86 +16 +19 1010.4 999.9
16 19.08 ЮЗ 7 28 км 1/1 1140 м
[]
+18.2 +12.4 69 +18 +19 1011.0 1000.5
17 19.08 ЮЗ 5 28 км 1/0 2000 м
[]
+17.1 +12.5 74 +17 +17 1011.4 1000.9
18 19.08 ЮЗ 5 24 км {ливн. осадки} 1/0
[]
+16.0 +12.4 79 +15 +15 1011.9 1001.4 +13.7 +19.5
19 19.08 ЮЗ 5 17 км в посл. час дождь {ливн. осадки} 6/6 1500 м
[]
+14.3 +12.9 91 +13 +13 1012.6 1002.0
20 19.08 ЮЗ 4 19 км 1/1 840 м
[]
+13.4 +12.4 94 +12 +12 1013.1 1002.4
21 19.08 ЮЗ 4 19 км {ливн. осадки} ясно +13.1 +12.3 95 +11 +11 1013.5 1002.8
22 19.08 ЮЗ 4 16 км ясно +12.5 +12.0 97 +10 +10 1013.7 1003.0
23 19.08 ЮЗ 5 15 км 4/4 1320 м
[]
+12.7 +12.4 98 +10 +10 1014.1 1003.4
00 20.08 ЮЗ 4 13 км {ливн. осадки} ясно +12.2 +12.0 99 +10 +10 1014.3 1003.6
01 20.08 ЮЗ 4 9000 м дымка ясно +11.4 +11.4 100 +9 +9 1014.5 1003.8
02 20.08 ЮЗ 3 10 км 1/0
[]
+11.4 +11.4 100 +9 +9 1015.0 1004.2
03 20.08 ЮЗ 3 9000 м дымка ясно +10.7 +10.7 100 +9 +9 1015.2 1004.4
04 20.08 Ю 3 10 км ясно +10.7 +10.6 99 +8 +8 1015.6 1004.8
05 20.08 Ю 3 11 км ясно +11.5 +11.4 99 +9 +10 1015.7 1004.9
06 20.08 Ю 3 12 км {дымка} ясно +12.9 +12.4 97 +12 +13 1015.8 1005.1 +10.5 +15.9
07 20.08 Ю 4 25 км 1/1 1500 м
[]
+14.5 +12.8 90 +13 +15 1016.3 1005.7
08 20.08 ЮЗ 5 29 км 4/4 1500 м
[]
+16.9 +12.9 77 +16 +18 1016.7 1006.2
09 20.08 ЮЗ 5 н/о н/о +16.8 +11.8 72 +16 +16 1016.7 1006.2
10 20.08 ЮЗ 4 35 км 1/1 870 м
[]
+18.9 +11.5 62 +20 +26 1017.0 1006.5
11 20.08 ЮЗ 6 35 км 1/1 1020 м
[]
+19.0 +10.4 57 +19 +23 1017.0 1006.5
12 20.08 З 5 30 км в посл. час дождь {ливн. осадки} 6/6 960 м
[]
+18.0 +11.6 66 +18 +20 1017.5 1007.0
13 20.08 ЮЗ 6 35 км 1/1 1300 м
[]
+20.4 +10.0 51 +22 +25 комфорт 1017.6 1007.2
14 20.08 З 5 30 км 4/4 1230 м
[]
+20.1 +10.2 53 +21 +24 комфорт 1017.9 1007.4
15 20.08 З 8
{12}
40 км ясно +18.3 +10.6 61 +18 +19 1018.5 1008.0
16 20.08 З 5 40 км ясно +19.0 +11.0 60 +20 +21 1018.9 1008.4
17 20.08 З 7 35 км ясно +17.8 +9.9 60 +17 +17 1019.4 1008.8
18 20.08 ЮЗ 3
{12}
35 км ясно +15.5 +10.7 73 +15 +15 1019.9 1009.3 +12.9 +21.0
19 20.08 ЮЗ 3 30 км ясно +13.7 +10.6 82 +13 +13 1020.5 1009.7
20 20.08 ЮЗ 3 30 км ясно +12.4 +10.5 88 +11 +11 1021.2 1010.4
21 20.08 ЮЗ 3 21 км ясно +11.6 +10.5 93 +10 +10 1021.2 1010.4
22 20.08 ЮЗ 3 22 км ясно +11.5 +10.7 95 +10 +10 1021.0 1010.2
23 20.08 ЮЗ 3 17 км ясно +10.8 +10.3 97 +9 +9 1021.4 1010.5
00 21.08 ЮЗ 3 20 км ясно +10.5 +10.1 97 +8 +8 1021.6 1010.7
01 21.08 ЮЗ 4 18 км ясно +10.6 +10.2 97 +8 +8 1021.9 1011.1
02 21.08 ЮЗ 2 15 км 4/4 870 м
[]
+10.7 +10.6 99 +9 +9 1022.2 1011.3
03 21.08 ЮЗ 2 13 км 1/1 1500 м
[]
+10.4 +10.3 99 +9 +9 1022.7 1011.9
04 21.08 ЮЗ 2 8000 м дымка ясно +9.5 +9.5 100 +8 +8 1023.0 1012.1
05 21.08 З 2 8000 м дымка ясно +10.0 +10.0 100 +8 +9 1023.5 1012.6
06 21.08 З 3 23 км {дымка} 1/1 840 м
[]
+11.8 +11.6 99 +10 +11 1024.0 1013.2 +9.3 +15.6
07 21.08 ЮЗ 3 30 км 1/1 1500 м
[]
+13.3 +11.7 90 +12 +14 1024.2 1013.4
08 21.08 З 5 40 км 1/1 600 м
[]
+15.2 +10.1 72 +14 +17 1024.5 1013.7
09 21.08 З 5 35 км 4/4 870 м
[]
+15.2 +9.1 67 +14 +17 1024.6 1013.9
10 21.08 З 5 35 км 1/1 1080 м
[]
+16.1 +8.5 61 +15 +20 1024.9 1014.3
11 21.08 З 6 30 км 1/1 1110 м
[]
+18.1 +7.4 50 +18 +21 1025.0 1014.4
12 21.08 З 6 30 км 1/1 1170 м
[]
+18.5 +7.5 49 +18 +22 1025.1 1014.5
13 21.08 З 7 40 км 1/1 1410 м
[]
+19.3 +7.0 45 +19 +22 1025.2 1014.6
14 21.08 З 6 35 км 1/1 1320 м
[]
+17.8 +8.1 53 +17 +20 1025.4 1014.8
15 21.08 З 6 30 км 1/1 1230 м
[]
+18.7 +8.4 51 +19 +20 1025.5 1015.0
16 21.08 З 5 30 км 1/1 1230 м
[]
+18.5 +9.5 56 +19 +20 1025.6 1015.0
17 21.08 З 5 40 км ясно +17.4 +9.7 61 +17 +17 1025.6 1015.0
18 21.08 З 2 45 км {дымка} 1/1 1230 м
[]
+16.4 +10.0 66 +17 +17 1025.6 1015.0 +11.3 +19.7
19 21.08 ЮЗ 2 40 км ясно +14.3 +10.0 75 +14 +14 1025.9 1015.2
20 21.08 ЮЗ 2 40 км ясно +12.7 +10.2 85 +12 +12 1026.4 1015.5
21 21.08 ЮЗ 2 45 км ясно +11.6 +9.8 89 +10 +10 1026.3 1015.5
22 21.08 ЮЗ 3 45 км ясно +11.3 +9.7 90 +10 +10 1026.3 1015.5
23 21.08 Ю 3 40 км ясно +10.8 +10.0 95 +9 +9 1026.2 1015.3
00 22.08 Ю 3 27 км ясно +10.4 +9.9 97 +8 +8 1026.1 1015.2
01 22.08 Ю 3 18 км 1/1 1470 м
[]
+11.0 +10.5 97 +9 +9 1025.9 1015.0
02 22.08 Ю 4 22 км ясно +11.0 +10.3 95 +9 +9 1025.7 1014.8
03 22.08 Ю 4 16 км ясно +10.9 +10.4 97 +8 +8 1025.5 1014.6
04 22.08 Ю 4 н/о ясно +11.0 +10.4 96 +9 +9 1025.2 1014.4
05 22.08 Ю 4 24 км ясно +11.7 +10.2 91 +9 +10 1025.0 1014.2
06 22.08 Ю 5 29 км ясно +13.6 +10.7 83 +12 +13 1024.9 1014.1 +10.3 +16.4
07 22.08 Ю 6 28 км ясно +15.7 +10.9 73 +14 +15 1024.5 1013.8
08 22.08 Ю 7 35 км ясно +16.8 +11.0 69 +16 +17 1024.3 1013.7
09 22.08 Ю 7 30 км ясно +17.7 +10.4 62 +17 +19 1024.1 1013.5
10 22.08 Ю 6 30 км ясно +18.7 +10.4 58 +19 +22 1023.8 1013.2
11 22.08 Ю 9 28 км ясно +19.7 +9.4 51 +20 +21 1023.2 1012.6
12 22.08 Ю 7 28 км ясно +20.1 +9.3 50 +21 +24 комфорт 1022.4 1011.9
13 22.08 ЮЗ 7 29 км ясно +21.9 +9.1 44 +23 +26 комфорт 1021.7 1011.3
14 22.08 ЮЗ 8 35 км 1/1 1500 м
[]
+20.9 +8.4 45 +22 +23 комфорт 1021.7 1011.2
15 22.08 ЮЗ 7 30 км ясно +19.6 +9.3 51 +20 +22 1021.8 1011.3
16 22.08 ЮЗ 8 35 км ясно +19.3 +10.1 55 +20 +20 1021.7 1011.2
17 22.08 З 5 9000 м слаб. ливневой дождь 9/9 960 м
[]
+14.9 +12.6 86 +13 +13 1022.5 1011.8
18 22.08 ЮЗ 3 13 км в посл. час дождь {ливн. осадки} 4/4 900 м
[]
+14.2 +13.7 97 +13 +13 1022.3 1011.6 +13.6 +22.8
19 22.08 ЮЗ 4 11 км слаб. ливневой дождь 1/1 1080 м
[]
+14.2 +13.7 97 +13 +13 1022.7 1011.9
20 22.08 ЮЗ 3 15 км слаб. ливневой дождь 4/4 1020 м
[]
+14.1 +13.2 94 +13 +13 1022.7 1012.0
21 22.08 ЮЗ 3 11 км {ливн. осадки} 4/4 1020 м
[]
+14.0 +13.7 98 +13 +13 1022.6 1011.9
22 22.08 Ю 4 14 км 6/6 720 м
[]
+14.6 +13.6 94 +13 +13 1022.4 1011.7
23 22.08 ЮЗ 4 16 км 1/1 660 м
[]
+14.7 +13.7 94 +13 +13 1022.3 1011.6
00 23.08 ЮЗ 5 17 км {ливн. осадки} 1/1 930 м
[]
+14.8 +14.1 96 +13 +13 1022.2 1011.5
01 23.08 ЮЗ 5 16 км 1/0
[]
+14.8 +14.2 96 +13 +13 1021.9 1011.2
02 23.08 ЮЗ 5 15 км 4/4 1200 м
[]
+14.8 +14.3 97 +13 +13 1021.6 1010.9
03 23.08 Ю 5 16 км 1/1 1440 м
[]
+14.9 +14.4 97 +13 +13 1021.3 1010.6
04 23.08 ЮЗ 5 17 км 6/6 1020 м
[]
+15.3 +14.5 95 +14 +14 1021.2 1010.6
05 23.08 ЮЗ 5 22 км 1/1 800 м
[]
+15.4 +14.5 94 +14 +14 1021.2 1010.6
06 23.08 ЮЗ 7 22 км ясно +16.6 +15.1 91 +15 +16 1021.3 1010.7 +13.9 +16.6
07 23.08 ЮЗ 7 16 км 9/9 400 м
[]
+17.0 +15.6 91 +16 +16 1021.7 1011.1
08 23.08 ЮЗ 8 7000 м дымка 6/6 330 м
[]
+17.6 +16.3 92 +17 +17 1021.9 1011.4
09 23.08 ЮЗ 8 21 км {дымка} 6/6 400 м
[]
+19.0 +16.8 87 +20 +20 1022.3 1011.7
10 23.08 ЮЗ 8 30 км 6/6 570 м
[]
+18.9 +16.5 86 +19 +20 1022.6 1012.0
11 23.08 ЮЗ 8 28 км 4/4 630 м
[]
+20.9 +16.8 77 +24 +25 комфорт 1022.6 1012.2
12 23.08 З 8 30 км 1/1 900 м
[]
+21.7 +15.5 68 +25 +27 комфорт 1022.8 1012.3
13 23.08 З 7 35 км 1/1 960 м
[]
+20.9 +14.2 66 +23 +26 комфорт 1023.1 1012.6
14 23.08 З 7 30 км 1/1 1080 м
[]
+21.4 +14.1 63 +24 +26 комфорт 1023.3 1012.8
15 23.08 З 8 28 км 1/1 1080 м
[]
+22.2 +14.1 60 +25 +26 комфорт 1023.4 1012.9
16 23.08 З 6 30 км 4/4 1000 м
[]
+21.7 +14.1 62 +25 +25 комфорт 1023.6 1013.2
17 23.08 З 5 29 км 1/1 960 м
[]
+20.3 +14.4 69 +23 +23 комфорт 1023.8 1013.3

 

Местоположение метеостанции Хальд V (Дания): широта 56.57 долгота 10.10 высота над уровнем моря 89 м.

В архиве по умолчанию представлена погода в Хальде V за последнюю неделю. Архивные данные за месяц целиком и за предыдущие месяцы, начиная с января 2011 года, Вы можете получить, выбрав интересующий диапазон дат из раскрывающегося списка и нажав кнопку "Ввод!".


*Определитесь, кто Вы:
робот инопланетянин человек

Внимание! Время в таблицах - всемирное. Для получения местного времени необходимо прибавить поправку, которая равна 1 ч.

Смотрите также архив погоды в соседних городах и на ближайших метеорологических станциях:

Погода в Фоулуме (Дания) (33 км)
Погода в Алеструпе (Дания) (42 км)
Погода в Тирструпе (Дания) (43 км)
Погода в Орхусе (Дания) (55 км)
Погода на Мысе Sletterhage (Дания) (58 км)
Погода в Ольборге (Дания) (61 км)
Погода в Карупе (Дания) (67 км)
Погода в Тылструпе (Дания) (68 км)
Погода в Исенваде (Дания) (78 км)
Погода в Исенваде (Дания) (78 км)

Пояснения к столбцам:

Ветер - указаны скорость ветра в м/с - средняя за 10 мин, порывы в срок и между сроками (в фигурных скобках) и направление, откуда дует ветер: С - северный, СВ - северо-восточный, В - восточный, ЮВ - юго-восточный, Ю - южный, ЮЗ - юго-западный, З - западный, СЗ - северо-западный.
Видимость - горизонтальная дальность видимости в метрах или километрах. При видимости от 1 до 10 км при отсутствии осадков обычно наблюдается дымка, при ухудшении видимости до 1 км и менее - туман. В сухую погоду видимость может ухудшаться дымом, пылью или мглою.
Явления - указаны атмосферные явления, наблюдавшиеся в срок или в последний час перед сроком; фигурными скобками обозначены явления, наблюдавшиеся между сроками (за 1-3 часа до срока); квадратными скобками обозначены град или гололедные отложения с указанием их диаметра в мм.
Облачность - указаны через наклонную черту общая и нижняя облачность в баллах и высота нижней границы облаков в метрах; квадратными скобками обозначены формы облаков: Ci - перистые, Cs - перисто-слоистые, Cc - перисто-кучевые, Ac - высококучевые, As - высокослоистые, Sc - слоисто-кучевые, Ns - слоисто-дождевые, Cu - кучевые, Cb - кучево-дождевые. Подробнее классификацию облаков см. в Атласе облаков (PDF).
T - Температура воздуха - температура, измеренная на высоте 2 м над землей.
Td - Температура точки росы - температура, при понижении до которой содержащийся в воздухе водяной пар достигнет насыщения.
f - Относительная влажность воздуха - влажноcть воздуха, измеренная на высоте 2 м над землей.
Te - Эффективная температура - температура, которую ощущает одетый по сезону человек в тени. Характеристика душности погоды. При расчете учитывается влияние влажности воздуха и скорости ветра на теплоощущения человека.
Tes - Эффективная температура на солнце - температура, которую ощущает человек, с поправкой на солнечный нагрев. Характеристика знойности погоды. Зависит от высоты солнца над горизонтом, облачности и скорости ветра. Ночью, в пасмурную погоду, а также при ветре 12 м/с и более поправка равна нулю.
P - Атмосферное давление - приведенное к уровню моря атмосферное давление.
Po - Атмосферное давление - измеренное на уровне метеостанции атмосферное давление.
Tmin - Минимальная температура - минимум температуры воздуха на высоте 2 м над землей.
Tmax - Максимальная температура - максимум температуры воздуха на высоте 2 м над землей.
R - Количество осадков - Количество выпавших осадков за период времени, мм. При наведении курсора мыши на число - период времени, за который выпало указанное количество осадков.
R24 - Количество осадков - Количество выпавших осадков за 24 часа, мм.
S - Снежный покров - Высота снежного покрова, см. При наведении курсора мыши на число - состояние снежного покрова и степень покрытия местности в баллах.